TimeEST,TemperatureF,Dew PointF,Humidity,Sea Level PressureIn,VisibilityMPH,Wind Direction,Wind SpeedMPH,Gust SpeedMPH,PrecipitationIn,Events,Conditions,WindDirDegrees,DateUTC
12:53 AM,52.0,41.0,66,30.25,10.0,NNE,5.8,-,N/A,,Clear,30,2013-02-02 05:53:00
1:53 AM,52.0,41.0,66,30.24,10.0,NNE,3.5,-,N/A,,Clear,30,2013-02-02 06:53:00
2:53 AM,51.1,39.9,66,30.23,10.0,NNE,4.6,-,N/A,,Clear,20,2013-02-02 07:53:00
3:53 AM,51.1,37.9,61,30.23,10.0,North,8.1,-,N/A,,Clear,10,2013-02-02 08:53:00
4:53 AM,51.1,35.1,54,30.23,10.0,NNE,6.9,-,N/A,,Clear,30,2013-02-02 09:53:00
5:53 AM,50.0,37.0,61,30.24,10.0,NNE,8.1,-,N/A,,Clear,30,2013-02-02 10:53:00
6:53 AM,51.1,37.0,59,30.26,10.0,NNE,9.2,-,N/A,,Clear,30,2013-02-02 11:53:00
7:53 AM,52.0,39.9,63,30.27,10.0,NE,9.2,-,N/A,,Clear,50,2013-02-02 12:53:00
8:53 AM,57.9,42.1,56,30.27,10.0,NNE,8.1,-,N/A,,Clear,30,2013-02-02 13:53:00
9:53 AM,64.0,37.9,38,30.27,10.0,NE,12.7,-,N/A,,Clear,40,2013-02-02 14:53:00
10:53 AM,69.1,42.1,38,30.25,10.0,NE,12.7,-,N/A,,Clear,50,2013-02-02 15:53:00
11:53 AM,72.0,45.0,38,30.22,10.0,ENE,9.2,-,N/A,,Clear,70,2013-02-02 16:53:00
12:53 PM,73.9,46.9,38,30.19,10.0,East,8.1,-,N/A,,Partly Cloudy,80,2013-02-02 17:53:00
1:53 PM,75.0,48.0,38,30.16,10.0,Variable,6.9,-,N/A,,Clear,0,2013-02-02 18:53:00
2:53 PM,75.0,46.9,37,30.14,10.0,South,4.6,-,N/A,,Clear,180,2013-02-02 19:53:00
3:53 PM,73.9,48.9,41,30.13,10.0,WSW,8.1,-,N/A,,Partly Cloudy,240,2013-02-02 20:53:00
4:53 PM,72.0,48.9,44,30.13,10.0,WNW,8.1,-,N/A,,Partly Cloudy,290,2013-02-02 21:53:00
5:53 PM,70.0,52.0,53,30.13,10.0,West,4.6,-,N/A,,Clear,280,2013-02-02 22:53:00
6:53 PM,66.0,53.1,63,30.14,10.0,Calm,Calm,-,N/A,,Clear,0,2013-02-02 23:53:00
7:53 PM,66.0,55.9,70,30.16,10.0,NNW,4.6,-,N/A,,Clear,330,2013-02-03 00:53:00
8:53 PM,64.0,55.9,75,30.17,10.0,Calm,Calm,-,N/A,,Clear,0,2013-02-03 01:53:00
9:53 PM,62.1,54.0,75,30.17,10.0,North,3.5,-,N/A,,Clear,350,2013-02-03 02:53:00
10:53 PM,61.0,52.0,72,30.15,10.0,NNW,3.5,-,N/A,,Clear,330,2013-02-03 03:53:00
11:53 PM,60.1,51.1,72,30.14,10.0,North,5.8,-,N/A,,Clear,10,2013-02-03 04:53:00